Regional Weather Roundup
Issued by NWS

Home | Current Version | Previous Version | Text Only | Print | Product List | Glossary On
Versions: 1 2 3 4 5 6 7 8 9 10 11 12 13 14 15 16 17 18 19 20 21 22 23 24 25 26 27 28 29 30 31 32 33 34 35 36 37 38 39 40 41 42 43 44 45 46 47 48 49 50
000
ASUS46 KPQR 060910
RWROR

OREGON REGIONAL WEATHER ROUNDUP
NATIONAL WEATHER SERVICE PORTLAND OR
100 AM PST FRI MAR 06 2015

NOTE: "FAIR" INDICATES FEW OR NO CLOUDS BELOW 12,000 FEET WITH
NO SIGNIFICANT WEATHER AND/OR OBSTRUCTIONS TO VISIBILITY.

ORZ001>013-061000-
NORTHWEST OREGON


CITY           SKY/WX    TMP DP  RH WIND       PRES   REMARKS
ASTORIA        CLEAR     39  36  89 E5        30.34F
NEWPORT        MOCLDY    46  41  81 E9        30.37S
PORTLAND       CLEAR     42  36  79 CALM      30.39S
VANCOUVER WA   CLEAR     38  32  79 CALM      30.38S
SCAPPOOSE      CLEAR     38  35  89 W3        30.38S
HILLSBORO      CLEAR     37  35  92 CALM      30.37S
AURORA         CLEAR     39  35  86 NE5       30.38S
MCMINNVILLE    CLEAR     38  35  89 CALM      30.38S
SALEM          CLEAR     38  34  85 CALM      30.36S
CORVALLIS      PTCLDY    37  36  93 W3        30.38S
EUGENE         FOG       39  38  96 CALM      30.37S VSB 1/2
$$

ORZ021-028-061000-
SOUTHWEST OREGON


CITY           SKY/WX    TMP DP  RH WIND       PRES   REMARKS
NORTH BEND     CLEAR     45  45 100 SE7       30.37R
BROOKINGS      CLEAR     43  38  82 CALM      30.35S
ROSEBURG       CLEAR     44  39  82 CALM      30.36S
SEXTON SUMMIT  CLEAR     48  33  56 N6        30.35F
MEDFORD        CLEAR     43  34  70 CALM      30.37R
$$

ORZ014>016-041-061000-
COLUMBIA GORGE


CITY           SKY/WX    TMP DP  RH WIND       PRES   REMARKS
TROUTDALE      CLEAR     39  35  86 E3        30.38R
THE DALLES     CLEAR     40  32  73 E3        30.38R
$$

ORZ029>031-041-044-049-050-061>064-502-503-505>511-061000-
EASTERN OREGON


CITY           SKY/WX    TMP DP  RH WIND       PRES   REMARKS
REDMOND        PTCLDY    30  22  72 SE6       30.36S WCI  24
BEND           PTCLDY    37  23  56 CALM      30.37R
PRINEVILLE     PTCLDY    30  23  74 CALM      30.37S
KLAMATH FALLS  CLEAR     27  19  72 NE3       30.37S
LAKEVIEW       CLEAR     21  16  79 NW3       30.39S
HERMISTON      PTCLDY    28  24  85 SE5       30.35S WCI  23
PENDLETON      PTCLDY    40  26  57 SE10      30.34S WCI  33
JOHN DAY       CLEAR     33  24  67 SE8       30.39S WCI  26
MEACHAM        PTCLDY    25  20  81 CALM      30.35F
LA GRANDE      PTCLDY    30  16  55 CALM      30.37S
BAKER CITY     CLEAR     25  19  78 CALM      30.40R
BURNS          CLEAR     28  19  69 W5        30.38S WCI  23
ROME             N/A     33  14  45 S7        30.37R WCI  27
ONTARIO        CLEAR     28  21  75 W5        30.43R WCI  23
$$


USA.gov is the U.S. government's official web portal to all federal, state and local government web resources and services.